DW7346 Weather Reports


Display with metric or nautical units.
time (UTC)temp
F
wind
direction
speed
MPH
gust
MPH
rain 1hr
in
rain 24hr
in
rain mn
in
humidity
%
barometer
mb
20260508170028 72 224 2.0 6.0 0.00 0.05 0.05 74 1010.5
20260508164525 71 184 2.0 5.0 0.00 0.05 0.05 75 1010.8
20260508163023 71 177 1.0 5.0 0.00 0.05 0.05 75 1011.2
20260508161530 69 207 1.0 8.0 0.00 0.05 0.05 79 1011.4
20260508160011 67 105 1.0 5.0 0.01 0.05 0.05 82 1011.6
20260508154509 65 179 1.0 4.0 0.01 0.05 0.05 85 1011.7
20260508153005 64 212 4.0 7.0 0.01 0.05 0.05 86 1012.0
20260508151504 63 169 1.0 4.0 0.01 0.05 0.05 91 1011.8
20260508150008 63 205 0.0 3.0 0.00 0.04 0.04 93 1012.3
20260508144502 63 108 1.0 3.0 0.00 0.04 0.04 96 1012.2
20260508143005 62 192 1.0 4.0 0.00 0.04 0.04 97 1012.2
20260508141608 62 265 0.0 2.0 0.00 0.04 0.04 96 1012.6
20260508140109 62 101 0.0 2.0 0.00 0.04 0.04 97 1012.4
20260508134559 62 92 0.0 3.0 0.00 0.04 0.04 97 1012.3
20260508133059 61 80 0.0 3.0 0.00 0.04 0.04 97 1012.2
20260508131600 60 73 0.0 0.0 0.00 0.04 0.04 97 1012.3
20260508130057 60 73 0.0 2.0 0.00 0.04 0.04 96 1012.3
20260508124601 60 127 0.0 3.0 0.01 0.04 0.04 96 1012.5
20260508123055 60 169 0.0 3.0 0.01 0.04 0.04 96 1012.4
20260508121554 60 264 1.0 4.0 0.01 0.04 0.04 96 1012.2
20260508120053 60 143 1.0 3.0 0.01 0.04 0.04 96 1012.8
20260508114600 60 174 0.0 2.0 0.00 0.03 0.03 96 1012.3
20260508113123 60 172 0.0 2.0 0.00 0.03 0.03 95 1012.2
20260508111551 60 129 0.0 2.0 0.00 0.03 0.03 95 1012.2
20260508110050 60 106 0.0 3.0 0.01 0.03 0.03 95 1012.0
20260508104556 60 109 0.0 4.0 0.01 0.03 0.03 95 1011.9
20260508103055 60 154 1.0 5.0 0.01 0.03 0.03 94 1012.7
20260508101549 60 210 0.0 1.0 0.01 0.03 0.03 94 1012.0
20260508100047 60 229 0.0 6.0 0.00 0.02 0.02 94 1012.1
20260508094549 60 155 0.0 3.0 0.00 0.02 0.02 94 1011.9
20260508093044 60 93 0.0 0.0 0.00 0.02 0.02 94 1011.7
20260508091545 61 93 0.0 0.0 0.01 0.02 0.02 93 1011.8
20260508090046 61 93 0.0 0.0 0.01 0.02 0.02 93 1012.0
20260508084540 61 100 0.0 3.0 0.02 0.02 0.02 92 1011.7
20260508083040 61 45 0.0 0.0 0.02 0.02 0.02 92 1012.1
20260508081539 61 310 0.0 3.0 0.01 0.01 0.01 90 1013.0
20260508080034 62 63 1.0 3.0 0.01 0.01 0.01 87 1011.9
20260508074532 63 187 0.0 3.0 0.00 0.00 0.00 84 1013.0
20260508073029 64 173 0.0 3.0 0.00 0.00 0.00 81 1013.1
20260508071527 63 186 0.0 2.0 0.00 0.00 0.00 79 1013.5
20260508070027 63 185 0.0 0.0 0.00 0.00 0.00 78 1013.1
20260508064546 63 185 0.0 0.0 0.00 0.00 0.00 78 1013.1
20260508063027 63 185 0.0 0.0 0.00 0.00 0.00 77 1013.5
20260508061521 63 185 0.0 0.0 0.00 0.00 0.00 77 1013.8
20260508060019 63 185 0.0 0.0 0.00 0.00 0.00 76 1013.7
20260508054526 63 185 0.0 0.0 0.00 0.00 0.00 75 1013.6
20260508053018 63 185 0.0 1.0 0.00 0.00 0.00 75 1013.5
20260508051523 63 185 0.0 0.0 0.00 0.00 0.00 74 1013.6
20260508050018 63 185 0.0 0.0 0.00 0.00 0.00 74 1013.6
20260508044513 63 185 0.0 0.0 0.00 0.00 0.00 74 1013.7
20260508043014 63 185 0.0 0.0 0.00 0.00 0.00 74 1013.6
20260508041511 63 185 0.0 0.0 0.00 0.00 0.00 74 1013.6
20260508040013 63 185 0.0 0.0 0.00 0.00 0.00 73 1013.6
20260508034520 63 185 0.0 0.0 0.00 0.00 0.00 72 1013.6
20260508033012 64 185 0.0 0.0 0.00 0.00 0.00 72 1013.4
20260508031509 64 185 0.0 0.0 0.00 0.00 0.00 71 1013.4
20260508030009 64 185 0.0 0.0 0.00 0.00 0.00 71 1013.3
20260508024513 65 185 0.0 2.0 0.00 0.00 0.00 70 1013.2
20260508023012 65 209 0.0 1.0 0.00 0.00 0.00 70 1012.9
20260508021507 66 209 0.0 1.0 0.00 0.00 0.00 69 1012.9
20260508020007 66 211 0.0 1.0 0.00 0.00 0.00 68 1012.7
20260508014507 67 214 0.0 2.0 0.00 0.00 0.00 67 1012.7
20260508013006 67 213 1.0 6.0 0.00 0.00 0.00 67 1012.7
20260508011506 68 193 1.0 5.0 0.00 0.00 0.00 66 1012.6
20260508010013 68 214 1.0 5.0 0.00 0.00 0.00 65 1012.8
20260508004503 68 165 1.0 6.0 0.00 0.00 0.00 64 1012.5
20260508003004 69 132 0.0 3.0 0.00 0.00 0.00 66 1012.4
20260508001501 70 191 2.0 5.0 0.00 0.00 0.00 62 1012.7
20260508000001 71 193 2.0 7.0 0.00 0.00 0.00 61 1013.0
20260507234601 72 91 1.0 5.0 0.00 0.00 0.00 59 1012.9
20260507233100 73 82 0.0 3.0 0.00 0.00 0.00 56 1012.8
20260507231614 73 31 0.0 0.0 0.00 0.00 0.00 56 1012.7
20260507230101 73 30 0.0 0.0 0.00 0.00 0.00 55 1012.9
20260507224556 72 11 0.0 4.0 0.00 0.00 0.00 54 1013.0
20260507223055 73 17 1.0 4.0 0.00 0.00 0.00 55 1013.1
20260507221601 73 349 0.0 2.0 0.00 0.00 0.00 55 1013.2
20260507220054 73 4 1.0 4.0 0.00 0.00 0.00 54 1013.2
20260507214551 74 5 1.0 3.0 0.00 0.00 0.00 53 1013.4
20260507213049 74 77 0.0 3.0 0.00 0.00 0.00 53 1013.6
20260507211556 75 113 1.0 4.0 0.00 0.00 0.00 52 1013.8
20260507210049 74 60 0.0 4.0 0.00 0.00 0.00 53 1013.9
20260507204546 75 179 1.0 4.0 0.00 0.00 0.00 55 1013.9
20260507203044 75 58 0.0 4.0 0.00 0.00 0.00 51 1013.9
20260507201541 75 9 1.0 6.0 0.00 0.00 0.00 52 1014.3
20260507200041 73 20 1.0 5.0 0.00 0.00 0.00 56 1014.5
20260507194539 74 27 3.0 6.0 0.00 0.00 0.00 51 1014.6
20260507193034 74 84 1.0 5.0 0.00 0.00 0.00 55 1014.9
20260507191531 73 55 2.0 7.0 0.00 0.00 0.00 56 1015.1
20260507190027 72 335 3.0 5.0 0.00 0.00 0.00 57 1015.4
20260507184526 71 338 3.0 7.0 0.00 0.00 0.00 57 1015.5
20260507183024 71 293 1.0 8.0 0.00 0.00 0.00 58 1015.6
20260507181522 70 56 1.0 6.0 0.00 0.00 0.00 61 1015.7
20260507180017 69 37 3.0 6.0 0.00 0.00 0.00 60 1016.2
20260507174538 69 345 4.0 11.0 0.00 0.00 0.00 60 1016.3
20260507173017 68 18 1.0 4.0 0.00 0.00 0.00 64 1016.9
20260507171512 68 9 4.0 7.0 0.00 0.00 0.00 62 1017.3